When you browse on this site, cookies collect data to enhance your experience and personalize the content and advertising you see.
Visit our Privacy Policy to learn more. By continuing to use the site, you agree to this use of cookies and data.
  • în România
  • Lista ţărilor
  • Pe 7 zile
  • Temperatura apei
  • Hartă satelitară
  • Meteo pe hartă
  • Widget-uri
  • user-avatar
    Intrare

    Meteo pe oră la Winchester

    Astăzi, 24 Martie, Duminică

    Timp Temperatura Precipitaţii Vânt Presiune Umiditate
    00:00 +5°C° 0 mm 2 m/s 768 mmHg 88%
    01:00 +6°C° 0 mm 1 m/s 768 mmHg 88%
    02:00 +5°C° 0 mm 1 m/s 767 mmHg 89%
    03:00 +5°C° 0 mm 1 m/s 767 mmHg 89%
    04:00 +5°C° 0 mm 1 m/s 767 mmHg 89%
    05:00 +5°C° 0 mm 1 m/s 767 mmHg 89%
    06:00 +5°C° 0 mm 1 m/s 767 mmHg 88%
    07:00 +6°C° 0 mm 1 m/s 767 mmHg 83%
    08:00 +7°C° 0 mm 2 m/s 768 mmHg 77%
    09:00 +8°C° 0 mm 2 m/s 768 mmHg 72%
    10:00 +9°C° 0 mm 3 m/s 768 mmHg 67%
    11:00 +10°C° 0 mm 3 m/s 768 mmHg 62%
    12:00 +12°C° 0 mm 3 m/s 767 mmHg 57%
    13:00 +12°C° 0 mm 4 m/s 767 mmHg 57%
    14:00 +12°C° 0 mm 4 m/s 767 mmHg 57%
    15:00 +12°C° 0 mm 4 m/s 767 mmHg 57%
    16:00 +11°C° 0 mm 4 m/s 767 mmHg 63%
    17:00 +9°C° 0 mm 3 m/s 767 mmHg 68%
    18:00 +8°C° 0 mm 3 m/s 767 mmHg 74%
    19:00 +7°C° 0 mm 3 m/s 767 mmHg 76%
    20:00 +5°C° 0 mm 3 m/s 767 mmHg 78%
    21:00 +4°C° 0 mm 4 m/s 767 mmHg 80%
    22:00 +4°C° 0 mm 4 m/s 767 mmHg 81%
    23:00 +3°C° 0 mm 4 m/s 767 mmHg 83%

    Mâine, 25 Martie, Luni

    Timp Temperatura Precipitaţii Vânt Presiune Umiditate
    00:00 +3°C° 0 mm 3 m/s 767 mmHg 84%
    01:00 +3°C° 0 mm 4 m/s 767 mmHg 87%
    02:00 +3°C° 0 mm 4 m/s 767 mmHg 89%
    03:00 +3°C° 0 mm 4 m/s 767 mmHg 92%
    04:00 +1°C° 0 mm 4 m/s 767 mmHg 92%
    05:00 +1°C° 0 mm 4 m/s 767 mmHg 93%
    06:00 +1°C° 0 mm 4 m/s 768 mmHg 93%
    07:00 +2°C° 0 mm 5 m/s 768 mmHg 85%
    08:00 +4°C° 0 mm 6 m/s 769 mmHg 76%
    09:00 +5°C° 0 mm 7 m/s 769 mmHg 67%
    10:00 +7°C° 0 mm 6 m/s 769 mmHg 64%
    11:00 +8°C° 0 mm 5 m/s 769 mmHg 61%
    12:00 +8°C° 0 mm 5 m/s 770 mmHg 58%
    13:00 +10°C° 0 mm 4 m/s 770 mmHg 57%
    14:00 +10°C° 0 mm 4 m/s 770 mmHg 56%
    15:00 +11°C° 0 mm 3 m/s 770 mmHg 55%
    16:00 +10°C° 0 mm 3 m/s 770 mmHg 60%
    17:00 +9°C° 0 mm 2 m/s 770 mmHg 66%
    18:00 +7°C° 0 mm 2 m/s 770 mmHg 71%
    19:00 +6°C° 0 mm 2 m/s 770 mmHg 73%
    20:00 +6°C° 0 mm 1 m/s 771 mmHg 75%
    21:00 +5°C° 0 mm 1 m/s 771 mmHg 78%
    22:00 +5°C° 0 mm 1 m/s 772 mmHg 79%
    23:00 +5°C° 0 mm 1 m/s 772 mmHg 81%

    Poimâine, 26 Martie, Marţi

    Timp Temperatura Precipitaţii Vânt Presiune Umiditate
    00:00 +4°C° 0 mm 1 m/s 772 mmHg 82%
    01:00 +4°C° 0 mm 1 m/s 772 mmHg 83%
    02:00 +3°C° 0 mm 2 m/s 771 mmHg 84%
    03:00 +2°C° 0 mm 2 m/s 771 mmHg 85%
    04:00 +2°C° 0 mm 2 m/s 771 mmHg 86%
    05:00 +2°C° 0 mm 2 m/s 771 mmHg 86%
    06:00 +2°C° 0 mm 2 m/s 771 mmHg 86%
    07:00 +3°C° 0 mm 2 m/s 771 mmHg 82%
    08:00 +5°C° 0 mm 2 m/s 772 mmHg 77%
    09:00 +7°C° 0 mm 2 m/s 772 mmHg 73%
    10:00 +8°C° 0 mm 2 m/s 772 mmHg 69%
    11:00 +10°C° 0 mm 2 m/s 772 mmHg 65%
    12:00 +11°C° 0 mm 3 m/s 772 mmHg 61%
    13:00 +12°C° 0 mm 3 m/s 771 mmHg 60%
    14:00 +12°C° 0 mm 3 m/s 771 mmHg 59%
    15:00 +13°C° 0 mm 3 m/s 770 mmHg 58%
    16:00 +13°C° 0 mm 2 m/s 770 mmHg 63%
    17:00 +10°C° 0 mm 2 m/s 770 mmHg 69%
    18:00 +9°C° 0 mm 2 m/s 770 mmHg 74%
    19:00 +8°C° 0 mm 2 m/s 770 mmHg 78%
    20:00 +8°C° 0 mm 1 m/s 770 mmHg 82%
    21:00 +7°C° 0 mm 1 m/s 771 mmHg 86%
    22:00 +6°C° 0 mm 2 m/s 771 mmHg 88%
    23:00 +6°C° 0 mm 2 m/s 770 mmHg 90%

    27 Martie, Miercuri

    Timp Temperatura Precipitaţii Vânt Presiune Umiditate
    00:00 +5°C° 0 mm 2 m/s 770 mmHg 92%
    01:00 +5°C° 0 mm 2 m/s 770 mmHg 92%
    02:00 +4°C° 0 mm 2 m/s 770 mmHg 91%
    03:00 +3°C° 0 mm 3 m/s 770 mmHg 91%
    04:00 +3°C° 0 mm 3 m/s 770 mmHg 92%
    05:00 +2°C° 0 mm 3 m/s 770 mmHg 93%
    06:00 +2°C° 0 mm 3 m/s 770 mmHg 93%
    07:00 +4°C° 0 mm 3 m/s 771 mmHg 88%
    08:00 +7°C° 0 mm 3 m/s 771 mmHg 83%
    09:00 +8°C° 0 mm 3 m/s 771 mmHg 78%
    10:00 +10°C° 0 mm 3 m/s 771 mmHg 73%
    11:00 +11°C° 0 mm 3 m/s 771 mmHg 68%
    12:00 +13°C° 0 mm 2 m/s 771 mmHg 64%
    13:00 +12°C° 0 mm 3 m/s 771 mmHg 65%
    14:00 +13°C° 0 mm 3 m/s 771 mmHg 66%
    15:00 +13°C° 0 mm 3 m/s 771 mmHg 67%
    16:00 +12°C° 0 mm 3 m/s 771 mmHg 71%
    17:00 +12°C° 0 mm 2 m/s 771 mmHg 76%
    18:00 +10°C° 0 mm 2 m/s 771 mmHg 81%
    19:00 +9°C° 0 mm 2 m/s 771 mmHg 83%
    20:00 +8°C° 0 mm 2 m/s 771 mmHg 86%
    21:00 +8°C° 0 mm 1 m/s 772 mmHg 88%
    22:00 +8°C° 0 mm 1 m/s 772 mmHg 88%
    23:00 +7°C° 0 mm 1 m/s 772 mmHg 88%

    28 Martie, Joi

    Timp Temperatura Precipitaţii Vânt Presiune Umiditate
    00:00 +7°C° 0 mm 1 m/s 772 mmHg 89%
    01:00 +7°C° 0 mm 1 m/s 772 mmHg 89%
    02:00 +6°C° 0 mm 1 m/s 772 mmHg 90%
    03:00 +5°C° 0 mm 2 m/s 772 mmHg 91%
    04:00 +5°C° 0 mm 2 m/s 772 mmHg 91%
    05:00 +4°C° 0 mm 2 m/s 772 mmHg 91%
    06:00 +4°C° 0 mm 2 m/s 772 mmHg 91%
    07:00 +6°C° 0 mm 2 m/s 772 mmHg 84%
    08:00 +7°C° 0 mm 2 m/s 772 mmHg 77%
    09:00 +9°C° 0 mm 2 m/s 772 mmHg 70%
    10:00 +12°C° 0 mm 1 m/s 772 mmHg 65%
    11:00 +13°C° 0 mm 1 m/s 772 mmHg 60%
    12:00 +15°C° 0 mm 1 m/s 772 mmHg 54%
    13:00 +15°C° 0 mm 1 m/s 771 mmHg 53%
    14:00 +16°C° 0 mm 1 m/s 771 mmHg 52%
    15:00 +16°C° 0 mm 1 m/s 770 mmHg 51%
    16:00 +15°C° 0 mm 1 m/s 770 mmHg 57%
    17:00 +13°C° 0 mm 1 m/s 770 mmHg 63%
    18:00 +12°C° 0 mm 1 m/s 770 mmHg 69%
    19:00 +11°C° 0 mm 1 m/s 770 mmHg 73%
    20:00 +9°C° 0 mm 0 m/s 770 mmHg 77%
    21:00 +7°C° 0 mm 0 m/s 770 mmHg 81%
    22:00 +7°C° 0 mm 0 m/s 770 mmHg 82%
    23:00 +7°C° 0 mm 0 m/s 770 mmHg 83%

    29 Martie, Vineri

    Timp Temperatura Precipitaţii Vânt Presiune Umiditate
    00:00 +6°C° 0 mm 0 m/s 769 mmHg 84%
    01:00 +6°C° 0 mm 0 m/s 769 mmHg 85%
    02:00 +6°C° 0 mm 0 m/s 769 mmHg 86%
    03:00 +6°C° 0 mm 0 m/s 769 mmHg 87%
    04:00 +5°C° 0 mm 0 m/s 769 mmHg 87%
    05:00 +5°C° 0 mm 0 m/s 769 mmHg 88%
    06:00 +5°C° 0 mm 0 m/s 769 mmHg 89%
    07:00 +7°C° 0 mm 0 m/s 769 mmHg 84%
    08:00 +10°C° 0 mm 1 m/s 769 mmHg 79%
    09:00 +12°C° 0 mm 1 m/s 769 mmHg 74%
    10:00 +13°C° 0 mm 1 m/s 768 mmHg 70%
    11:00 +14°C° 0 mm 1 m/s 768 mmHg 66%
    12:00 +15°C° 0 mm 2 m/s 768 mmHg 62%
    13:00 +15°C° 0 mm 2 m/s 767 mmHg 62%
    14:00 +16°C° 0 mm 2 m/s 767 mmHg 62%
    15:00 +16°C° 0 mm 2 m/s 766 mmHg 62%
    16:00 +15°C° 0 mm 2 m/s 766 mmHg 69%
    17:00 +13°C° 0 mm 2 m/s 765 mmHg 76%
    18:00 +12°C° 0 mm 2 m/s 765 mmHg 83%
    19:00 +10°C° 0 mm 2 m/s 765 mmHg 86%
    20:00 +8°C° 0 mm 2 m/s 765 mmHg 88%
    21:00 +8°C° 0 mm 1 m/s 765 mmHg 91%
    22:00 +8°C° 0 mm 1 m/s 765 mmHg 90%
    23:00 +7°C° 0 mm 1 m/s 764 mmHg 90%
    Arată mai mult